| Back to River Map | <<< Previous Forecast Point | | | Next Forecast Point >>> | Printer Version | Graph Version |  |
|
RUSSIAN RIVER - HOPLAND (HOPC1)
| Latitude: 39.03º N | Longitude: 123.13º W | Elevation: 498 Feet | | Forecast Type: Official Location |
| Location: Mendocino County in California | Bulletin Group: Russian Napa | River Group: Russian Napa |
| Issuance Time: | Sep 02 2026 at 7:27 AM PDT | Next Issuance: | Sep 03 2026 at 9:00 AM PDT
| |
| Action: N/A | Minor Flood: 15.0 Feet | Moderate Flood: 23.0 Feet | Major Flood: 26.0 Feet |
# Tabular Observed and Forecast Hydrograph Information
#
# Location: Russian River - Hopland (HOPC1)
#
# File Generation Time: 09/02/2026 at 07:27 AM PDT
# Data Interval: 1 Hour
#
# Most Recent Date & Time of Maximum Observed: 09/02/2026 at 05:00 AM PDT
# Maximum Observed Stage: 0.76 Feet
# Maximum Observed Flow: 128 cfs
#
# Earliest Date & Time of Maximum Forecast: 09/03/2026 at 01:00 PM PDT
# Maximum Forecast Stage: 0.88 Feet
# Maximum Forecast Flow: 148 cfs
#
# OBSERVED
#
# Date & Time (Local) Stage (Feet) Flow (cfs) Trend Observed Status
# ---------------------------------------------------------------------------------
08/28/2026 07 AM PDT 0.74 125 Normal
08/28/2026 08 AM PDT 0.74 125 0 Normal
08/28/2026 09 AM PDT 0.74 125 0 Normal
08/28/2026 10 AM PDT 0.73 123 - Normal
08/28/2026 11 AM PDT 0.74 125 + Normal
08/28/2026 12 PM PDT 0.73 123 - Normal
08/28/2026 01 PM PDT 0.73 123 0 Normal
08/28/2026 02 PM PDT 0.72 121 - Normal
08/28/2026 03 PM PDT 0.72 121 0 Normal
08/28/2026 04 PM PDT 0.72 121 0 Normal
08/28/2026 05 PM PDT 0.72 121 0 Normal
08/28/2026 06 PM PDT 0.71 120 - Normal
08/28/2026 07 PM PDT 0.71 120 0 Normal
08/28/2026 08 PM PDT 0.71 120 0 Normal
08/28/2026 09 PM PDT 0.71 120 0 Normal
08/28/2026 10 PM PDT 0.72 121 + Normal
08/28/2026 11 PM PDT 0.72 121 0 Normal
08/29/2026 12 AM PDT 0.72 121 0 Normal
08/29/2026 01 AM PDT 0.73 123 + Normal
08/29/2026 02 AM PDT 0.73 123 0 Normal
08/29/2026 03 AM PDT 0.73 123 0 Normal
08/29/2026 04 AM PDT 0.74 125 + Normal
08/29/2026 05 AM PDT 0.74 125 0 Normal
08/29/2026 06 AM PDT 0.74 125 0 Normal
08/29/2026 07 AM PDT 0.74 125 0 Normal
08/29/2026 08 AM PDT 0.74 125 0 Normal
08/29/2026 09 AM PDT 0.74 125 0 Normal
08/29/2026 10 AM PDT 0.74 125 0 Normal
08/29/2026 11 AM PDT 0.74 125 0 Normal
08/29/2026 12 PM PDT 0.75 126 + Normal
08/29/2026 01 PM PDT 0.74 125 - Normal
08/29/2026 02 PM PDT 0.73 123 - Normal
08/29/2026 03 PM PDT 0.73 123 0 Normal
08/29/2026 04 PM PDT 0.73 123 0 Normal
08/29/2026 05 PM PDT 0.72 121 - Normal
08/29/2026 06 PM PDT 0.72 121 0 Normal
08/29/2026 07 PM PDT 0.71 120 - Normal
08/29/2026 08 PM PDT 0.71 120 0 Normal
08/29/2026 09 PM PDT 0.71 120 0 Normal
08/29/2026 10 PM PDT 0.71 120 0 Normal
08/29/2026 11 PM PDT 0.71 120 0 Normal
08/30/2026 12 AM PDT 0.72 121 + Normal
08/30/2026 01 AM PDT 0.73 123 + Normal
08/30/2026 02 AM PDT 0.73 123 0 Normal
08/30/2026 03 AM PDT 0.73 123 0 Normal
08/30/2026 04 AM PDT 0.73 123 0 Normal
08/30/2026 05 AM PDT 0.74 125 + Normal
08/30/2026 06 AM PDT 0.74 125 0 Normal
08/30/2026 07 AM PDT 0.74 125 0 Normal
08/30/2026 08 AM PDT 0.74 125 0 Normal
08/30/2026 09 AM PDT 0.74 125 0 Normal
08/30/2026 10 AM PDT 0.74 125 0 Normal
08/30/2026 11 AM PDT 0.73 123 - Normal
08/30/2026 12 PM PDT 0.73 123 0 Normal
08/30/2026 01 PM PDT 0.72 121 - Normal
08/30/2026 02 PM PDT 0.72 121 0 Normal
08/30/2026 03 PM PDT 0.72 121 0 Normal
08/30/2026 04 PM PDT 0.72 121 0 Normal
08/30/2026 05 PM PDT 0.71 120 - Normal
08/30/2026 06 PM PDT 0.71 120 0 Normal
08/30/2026 07 PM PDT 0.71 120 0 Normal
08/30/2026 08 PM PDT 0.71 120 0 Normal
08/30/2026 09 PM PDT 0.72 121 + Normal
08/30/2026 10 PM PDT 0.72 121 0 Normal
08/30/2026 11 PM PDT 0.72 121 0 Normal
08/31/2026 12 AM PDT 0.73 123 + Normal
08/31/2026 01 AM PDT 0.73 123 0 Normal
08/31/2026 02 AM PDT 0.74 125 + Normal
08/31/2026 03 AM PDT 0.74 125 0 Normal
08/31/2026 04 AM PDT 0.74 125 0 Normal
08/31/2026 05 AM PDT 0.74 125 0 Normal
08/31/2026 06 AM PDT 0.73 123 - Normal
08/31/2026 07 AM PDT 0.73 123 0 Normal
08/31/2026 08 AM PDT 0.73 123 0 Normal
08/31/2026 09 AM PDT 0.72 121 - Normal
08/31/2026 10 AM PDT 0.71 120 - Normal
08/31/2026 11 AM PDT 0.72 121 + Normal
08/31/2026 12 PM PDT 0.72 121 0 Normal
08/31/2026 01 PM PDT 0.72 121 0 Normal
08/31/2026 02 PM PDT 0.71 120 - Normal
08/31/2026 03 PM PDT 0.71 120 0 Normal
08/31/2026 04 PM PDT 0.71 120 0 Normal
08/31/2026 05 PM PDT 0.70 118 - Normal
08/31/2026 06 PM PDT 0.70 118 0 Normal
08/31/2026 07 PM PDT 0.70 118 0 Normal
08/31/2026 08 PM PDT 0.71 120 + Normal
08/31/2026 09 PM PDT 0.72 121 + Normal
08/31/2026 10 PM PDT 0.73 123 + Normal
08/31/2026 11 PM PDT 0.73 123 0 Normal
09/01/2026 12 AM PDT 0.74 125 + Normal
09/01/2026 01 AM PDT 0.74 125 0 Normal
09/01/2026 02 AM PDT 0.75 126 + Normal
09/01/2026 03 AM PDT 0.75 126 0 Normal
09/01/2026 04 AM PDT 0.75 126 0 Normal
09/01/2026 05 AM PDT 0.75 126 0 Normal
09/01/2026 06 AM PDT 0.75 126 0 Normal
09/01/2026 07 AM PDT 0.76 128 + Normal
09/01/2026 08 AM PDT 0.75 126 - Normal
09/01/2026 09 AM PDT 0.74 125 - Normal
09/01/2026 10 AM PDT 0.74 125 0 Normal
09/01/2026 11 AM PDT 0.72 121 - Normal
09/01/2026 12 PM PDT 0.71 120 - Normal
09/01/2026 01 PM PDT 0.71 120 0 Normal
09/01/2026 02 PM PDT 0.70 118 - Normal
09/01/2026 03 PM PDT 0.70 118 0 Normal
09/01/2026 04 PM PDT 0.71 120 + Normal
09/01/2026 05 PM PDT 0.72 121 + Normal
09/01/2026 06 PM PDT 0.73 123 + Normal
09/01/2026 07 PM PDT 0.73 123 0 Normal
09/01/2026 08 PM PDT 0.73 123 0 Normal
09/01/2026 09 PM PDT 0.74 125 + Normal
09/01/2026 10 PM PDT 0.75 126 + Normal
09/01/2026 11 PM PDT 0.75 126 0 Normal
09/02/2026 12 AM PDT 0.75 126 0 Normal
09/02/2026 01 AM PDT 0.75 126 0 Normal
09/02/2026 02 AM PDT 0.76 128 + Normal
09/02/2026 03 AM PDT 0.76 128 0 Normal
09/02/2026 04 AM PDT 0.76 128 0 Normal
09/02/2026 05 AM PDT 0.76 128 0 Normal
09/02/2026 06 AM PDT 0.75 126 - Normal
09/02/2026 07 AM PDT 0.75 126 0 Normal
#
# FORECAST
#
# Date & Time (Local) Stage (Feet) Flow (cfs) Trend Forecast Status
# ---------------------------------------------------------------------------------
09/02/2026 08 AM PDT 0.74 125 Normal
09/02/2026 09 AM PDT 0.74 125 0 Normal
09/02/2026 10 AM PDT 0.74 125 0 Normal
09/02/2026 11 AM PDT 0.74 125 0 Normal
09/02/2026 12 PM PDT 0.74 125 0 Normal
09/02/2026 01 PM PDT 0.74 125 0 Normal
09/02/2026 02 PM PDT 0.73 123 - Normal
09/02/2026 03 PM PDT 0.73 123 0 Normal
09/02/2026 04 PM PDT 0.73 123 0 Normal
09/02/2026 05 PM PDT 0.73 123 0 Normal
09/02/2026 06 PM PDT 0.73 123 0 Normal
09/02/2026 07 PM PDT 0.73 123 0 Normal
09/02/2026 08 PM PDT 0.73 123 0 Normal
09/02/2026 09 PM PDT 0.73 123 0 Normal
09/02/2026 10 PM PDT 0.73 123 0 Normal
09/02/2026 11 PM PDT 0.73 123 0 Normal
09/03/2026 12 AM PDT 0.73 123 0 Normal
09/03/2026 01 AM PDT 0.73 123 0 Normal
09/03/2026 02 AM PDT 0.73 123 0 Normal
09/03/2026 03 AM PDT 0.73 123 0 Normal
09/03/2026 04 AM PDT 0.73 123 0 Normal
09/03/2026 05 AM PDT 0.74 125 + Normal
09/03/2026 06 AM PDT 0.75 126 + Normal
09/03/2026 07 AM PDT 0.77 130 + Normal
09/03/2026 08 AM PDT 0.79 133 + Normal
09/03/2026 09 AM PDT 0.81 136 + Normal
09/03/2026 10 AM PDT 0.83 140 + Normal
09/03/2026 11 AM PDT 0.85 143 + Normal
09/03/2026 12 PM PDT 0.87 147 + Normal
09/03/2026 01 PM PDT 0.88 148 + Normal
09/03/2026 02 PM PDT 0.88 148 0 Normal
09/03/2026 03 PM PDT 0.88 148 0 Normal
09/03/2026 04 PM PDT 0.87 147 - Normal
09/03/2026 05 PM PDT 0.86 145 - Normal
09/03/2026 06 PM PDT 0.86 145 0 Normal
09/03/2026 07 PM PDT 0.85 143 - Normal
09/03/2026 08 PM PDT 0.84 141 - Normal
09/03/2026 09 PM PDT 0.83 140 - Normal
09/03/2026 10 PM PDT 0.83 140 0 Normal
09/03/2026 11 PM PDT 0.81 136 - Normal
09/04/2026 12 AM PDT 0.81 136 0 Normal
09/04/2026 01 AM PDT 0.80 135 - Normal
09/04/2026 02 AM PDT 0.79 133 - Normal
09/04/2026 03 AM PDT 0.78 131 - Normal
09/04/2026 04 AM PDT 0.77 130 - Normal
09/04/2026 05 AM PDT 0.76 128 - Normal
09/04/2026 06 AM PDT 0.76 128 0 Normal
09/04/2026 07 AM PDT 0.75 126 - Normal
09/04/2026 08 AM PDT 0.75 126 0 Normal
09/04/2026 09 AM PDT 0.75 126 0 Normal
09/04/2026 10 AM PDT 0.74 125 - Normal
09/04/2026 11 AM PDT 0.74 125 0 Normal
09/04/2026 12 PM PDT 0.74 125 0 Normal
09/04/2026 01 PM PDT 0.74 125 0 Normal
09/04/2026 02 PM PDT 0.74 125 0 Normal
09/04/2026 03 PM PDT 0.74 125 0 Normal
09/04/2026 04 PM PDT 0.73 123 - Normal
09/04/2026 05 PM PDT 0.73 123 0 Normal
09/04/2026 06 PM PDT 0.73 123 0 Normal
09/04/2026 07 PM PDT 0.73 123 0 Normal
09/04/2026 08 PM PDT 0.73 123 0 Normal
09/04/2026 09 PM PDT 0.73 123 0 Normal
09/04/2026 10 PM PDT 0.73 123 0 Normal
09/04/2026 11 PM PDT 0.73 123 0 Normal
09/05/2026 12 AM PDT 0.73 123 0 Normal
09/05/2026 01 AM PDT 0.73 123 0 Normal
09/05/2026 02 AM PDT 0.73 123 0 Normal
09/05/2026 03 AM PDT 0.73 123 0 Normal
09/05/2026 04 AM PDT 0.73 123 0 Normal
09/05/2026 05 AM PDT 0.73 123 0 Normal
09/05/2026 06 AM PDT 0.73 123 0 Normal
09/05/2026 07 AM PDT 0.73 123 0 Normal
09/05/2026 08 AM PDT 0.73 123 0 Normal
09/05/2026 09 AM PDT 0.73 123 0 Normal
09/05/2026 10 AM PDT 0.73 123 0 Normal
09/05/2026 11 AM PDT 0.73 123 0 Normal
09/05/2026 12 PM PDT 0.73 123 0 Normal
09/05/2026 01 PM PDT 0.73 123 0 Normal
09/05/2026 02 PM PDT 0.72 121 - Normal
09/05/2026 03 PM PDT 0.72 121 0 Normal
09/05/2026 04 PM PDT 0.72 121 0 Normal
09/05/2026 05 PM PDT 0.72 121 0 Normal
09/05/2026 06 PM PDT 0.73 123 + Normal
09/05/2026 07 PM PDT 0.73 123 0 Normal
09/05/2026 08 PM PDT 0.73 123 0 Normal
09/05/2026 09 PM PDT 0.73 123 0 Normal
09/05/2026 10 PM PDT 0.73 123 0 Normal
09/05/2026 11 PM PDT 0.73 123 0 Normal
09/06/2026 12 AM PDT 0.73 123 0 Normal
09/06/2026 01 AM PDT 0.73 123 0 Normal
09/06/2026 02 AM PDT 0.73 123 0 Normal
09/06/2026 03 AM PDT 0.73 123 0 Normal
09/06/2026 04 AM PDT 0.73 123 0 Normal
09/06/2026 05 AM PDT 0.73 123 0 Normal
09/06/2026 06 AM PDT 0.73 123 0 Normal
09/06/2026 07 AM PDT 0.73 123 0 Normal
09/06/2026 08 AM PDT 0.73 123 0 Normal
09/06/2026 09 AM PDT 0.73 123 0 Normal
09/06/2026 10 AM PDT 0.73 123 0 Normal
09/06/2026 11 AM PDT 0.73 123 0 Normal
09/06/2026 12 PM PDT 0.73 123 0 Normal
09/06/2026 01 PM PDT 0.73 123 0 Normal
09/06/2026 02 PM PDT 0.73 123 0 Normal
09/06/2026 03 PM PDT 0.73 123 0 Normal
09/06/2026 04 PM PDT 0.73 123 0 Normal
09/06/2026 05 PM PDT 0.73 123 0 Normal
09/06/2026 06 PM PDT 0.73 123 0 Normal
09/06/2026 07 PM PDT 0.73 123 0 Normal
09/06/2026 08 PM PDT 0.73 123 0 Normal
09/06/2026 09 PM PDT 0.73 123 0 Normal
09/06/2026 10 PM PDT 0.73 123 0 Normal
09/06/2026 11 PM PDT 0.73 123 0 Normal
09/07/2026 12 AM PDT 0.73 123 0 Normal
09/07/2026 01 AM PDT 0.73 123 0 Normal
09/07/2026 02 AM PDT 0.73 123 0 Normal
09/07/2026 03 AM PDT 0.73 123 0 Normal
09/07/2026 04 AM PDT 0.73 123 0 Normal
09/07/2026 05 AM PDT 0.73 123 0 Normal
#
# NOTE 1: Stages are rounded to the nearest hundredth (.01) of a foot.
# NOTE 2: Flows are rounded to the nearest (1) cfs.
# NOTE 3: Trends are determined using hourly change in unrounded stage and flow.
# NOTE 4: Maximum Values are determined using unrounded stage and flow.
|